Погода в Тербясе

Россия / Республика Саха (Якутия)     64°22′18″N   120°32′33″E
темп.,
°C
ветер,
м/с
пор.,
м/с
влажн.,
%
обл.,
%
осадки,
мм/ч
давл.,
гПа
погр.,
м
1 марта, пн
пн100:00−30з4793100 0.0 1029164
03:00−32з3693100 0.0 1029127
06:00−33з4692100 0.0 1029123
09:00−34з3693100 0.0 1029146
12:00−31з3590100 0.0 1028300
15:00−30зюз3589100 0.0 1027347
18:00−32зюз2394100 0.0 102824
21:00−36з229975 0.0 102819
2 марта, вт
вт200:00−37з229918 0.0 102719
03:00−38з119933 0.0 102819
06:00−39зюз119968 0.0 102718
09:00−39зсз119960 0.0 102718
12:00−33с019052 0.0 1027218
15:00−31св008671 0.0 1026305
18:00−35всв129581 0.0 102619
21:00−38ссв019872 0.0 102719
3 марта, ср
ср300:00−39ссз129769 0.0 102719
03:00−39с129773 0.0 102718
06:00−40ссз229940 0.0 102718
09:00−40сз229745 0.0 102719
12:00−34ссз239064 0.0 1026272
15:00−31сз348879 0.0 1025373
18:00−31сз3694100 0.0 1025321
21:00−31зсз3797100 0.1 1025257
4 марта, чт
чт400:00−31зсз4897100 0.1 1024302
03:00−31зсз5995100 0.3 1024378
06:00−32зсз51091100 0.1 1023362
09:00−32зсз51191100 0.1 1023411
12:00−30сз51090100 0.0 1023629
15:00−28сз5989100 0.1 1024773
18:00−28сз4992100 0.1 1025584
21:00−30сз3895100 0.1 1027295
5 марта, пт
пт500:00−34сз359793 0.0 102893
03:00−36зсз359577 0.0 102999
06:00−37зсз359516 0.0 103190
09:00−36зсз36958 0.0 1031148
12:00−31зсз369113 0.0 1031330
15:00−27зсз469145 0.0 1031403
18:00−29з339582 0.0 103148
21:00−32зсз339641 0.0 103130